Regional Weather Roundup
Issued by NWS

Home | Current Version | Previous Version | Text Only | Print | Product List | Glossary On
Versions: 1 2 3 4 5 6 7 8 9 10 11 12 13 14 15 16 17 18 19 20 21 22 23 24 25 26 27 28 29 30 31 32 33 34 35 36 37 38 39 40 41 42 43 44 45 46 47 48 49 50
000
ASUS43 KLSX 180957
RWRMO

WEATHER SUMMARY FOR MISSOURI
NATIONAL WEATHER SERVICE SPRINGFIELD MO
400 AM CST MON DEC 18 2017

NOTE: "FAIR" INDICATES FEW OR NO CLOUDS BELOW 12,000 FEET WITH NO
       SIGNIFICANT WEATHER AND/OR OBSTRUCTIONS TO VISIBILITY.
       CURRENT SKY AND/OR WEATHER CONDITIONS ARE NOT AVAILABLE FOR
       CHILLICOTHE AND FARMINGTON.

MOZ001>031-035>038-043-044-053-054-181100-
...NORTHERN AND WESTERN MISSOURI...

CITY           SKY/WX    TMP DP  RH WIND       PRES   REMARKS
KANSAS CTY INT CLEAR     40  39  97 SW6       30.02S
LEE`S SUMMIT   CLOUDY    44  43  96 SW8       30.03S
ST JOSEPH      CLOUDY    36  36 100 W5        30.03S FOG
CHILLICOTHE      N/A     44  42  93 S6        30.01F

$$
MOZ066>068-077>081-088>096-101>105-181100-
...SOUTHWEST MISSOURI...

CITY           SKY/WX    TMP DP  RH WIND       PRES   REMARKS
SPRINGFIELD    CLOUDY    44  42  93 SW7       30.08S
JOPLIN         CLOUDY    44  44 100 SW9       30.10R

$$
MOZ032>034-039>042-045>050-055>058-069>072-181100-
...CENTRAL MISSOURI...

CITY           SKY/WX    TMP DP  RH WIND       PRES   REMARKS
COLUMBIA       CLOUDY    45  42  89 SW8       30.04S
JEFFERSON CITY CLOUDY    46  41  82 SW9       30.06S
ROLLA          CLOUDY    44  43  96 W9        30.06F
SEDALIA        CLOUDY    44  44 100 SW7       30.05F
WARRENSBURG    CLOUDY    43  41  93 S6        30.04S

$$
MOZ051-052-059>065-181100-
...EAST CENTRAL MISSOURI...

CITY           SKY/WX    TMP DP  RH WIND       PRES   REMARKS
ST LOUIS INTL  CLOUDY    47  42  83 W7        30.06S

$$
MOZ072>076-082>087-097>100-106>115-181100-
...SOUTH CENTRAL AND SOUTHEAST MISSOURI...

CITY           SKY/WX    TMP DP  RH WIND       PRES   REMARKS
CAPE GIRARDEAU CLOUDY    44  43  96 SW8       30.12S FOG
POPLAR BLUFF   FOG       45  45 100 SW7       30.13R VSB 1
WEST PLAINS    CLOUDY    46  45  96 SW5       30.09F FOG

$$



USA.gov is the U.S. government's official web portal to all federal, state and local government web resources and services.